FW2916 Weather Reports


Display with metric or nautical units.
time (UTC)temp
F
wind
direction
speed
MPH
gust
MPH
rain 1hr
in
rain 24hr
in
rain mn
in
humidity
%
barometer
mb
20260507154541 63 243 2.0 8.0 0.00 0.00 0.00 58 1016.2
20260507153044 63 241 2.0 8.0 0.00 0.00 0.00 60 1016.3
20260507151540 62 304 1.0 8.0 0.00 0.00 0.00 62 1016.5
20260507150040 61 295 2.0 7.0 0.00 0.00 0.00 63 1016.6
20260507144540 61 238 2.0 8.0 0.00 0.00 0.00 63 1016.6
20260507143040 60 266 1.0 8.0 0.00 0.00 0.00 65 1016.6
20260507141543 58 29 2.0 6.0 0.00 0.00 0.00 68 1016.6
20260507140040 57 227 1.0 6.0 0.00 0.00 0.00 69 1016.8
20260507134538 56 208 1.0 6.0 0.00 0.00 0.00 72 1016.7
20260507133035 54 177 0.0 2.0 0.00 0.00 0.00 77 1016.8
20260507131601 51 146 0.0 2.0 0.00 0.00 0.00 80 1016.9
20260507130042 48 172 0.0 2.0 0.00 0.00 0.00 84 1017.2
20260507124543 45 0 0.0 2.0 0.00 0.00 0.00 89 1017.2
20260507123043 42 0 0.0 1.0 0.00 0.00 0.00 96 1017.2
20260507121535 39 0 0.0 0.0 0.00 0.00 0.00 96 1017.1
20260507120043 38 0 0.0 0.0 0.00 0.00 0.00 95 1017.2
20260507114545 37 0 0.0 0.0 0.00 0.00 0.00 95 1017.1
20260507113040 37 0 0.0 0.0 0.00 0.00 0.00 95 1016.9
20260507111536 37 0 0.0 0.0 0.00 0.00 0.00 95 1016.9
20260507110037 37 0 0.0 0.0 0.00 0.00 0.00 95 1016.8
20260507104540 37 0 0.0 0.0 0.00 0.00 0.00 95 1016.8
20260507103042 37 0 0.0 0.0 0.00 0.00 0.00 95 1016.7
20260507101540 37 0 0.0 0.0 0.00 0.00 0.00 94 1016.8
20260507100036 38 0 0.0 0.0 0.00 0.00 0.00 94 1016.8
20260507094535 38 0 0.0 0.0 0.00 0.00 0.00 94 1017.1
20260507093038 38 0 0.0 0.0 0.00 0.00 0.00 94 1017.1
20260507091541 37 0 0.0 0.0 0.00 0.00 0.00 94 1017.1
20260507090040 38 0 0.0 0.0 0.00 0.00 0.00 93 1017.1
20260507084536 37 0 0.0 0.0 0.00 0.00 0.00 92 1017.1
20260507083036 38 0 0.0 0.0 0.00 0.00 0.00 92 1017.2
20260507081535 38 0 0.0 0.0 0.00 0.00 0.00 91 1017.3
20260507080042 39 0 0.0 0.0 0.00 0.00 0.00 91 1017.1
20260507074541 39 0 0.0 0.0 0.00 0.00 0.00 89 1017.2
20260507073037 40 0 0.0 0.0 0.00 0.00 0.00 89 1017.3
20260507071559 41 0 0.0 0.0 0.00 0.00 0.00 87 1017.4
20260507070045 42 0 0.0 0.0 0.00 0.00 0.00 87 1017.7
20260507064540 42 0 0.0 0.0 0.00 0.02 0.00 88 1017.8
20260507063045 42 0 0.0 0.0 0.00 0.02 0.00 87 1017.9
20260507061535 42 0 0.0 0.0 0.00 0.02 0.00 86 1018.0
20260507060038 42 0 0.0 0.0 0.00 0.02 0.00 86 1018.0
20260507054535 41 0 0.0 0.0 0.00 0.02 0.00 85 1018.1
20260507053109 41 0 0.0 0.0 0.00 0.02 0.00 85 1018.1
20260507051544 40 0 0.0 0.0 0.00 0.02 0.00 86 1018.0
20260507050043 40 0 0.0 0.0 0.00 0.02 0.00 88 1018.0
20260507044535 41 0 0.0 0.0 0.00 0.02 0.02 88 1018.1
20260507043042 41 0 0.0 0.0 0.00 0.02 0.02 88 1017.9
20260507041540 41 0 0.0 0.0 0.00 0.02 0.02 89 1018.0
20260507040045 41 0 0.0 0.0 0.00 0.02 0.02 88 1018.2
20260507034538 41 0 0.0 0.0 0.00 0.02 0.02 86 1018.3
20260507033043 42 0 0.0 0.0 0.00 0.02 0.02 83 1018.1
20260507031541 43 0 0.0 0.0 0.00 0.02 0.02 81 1018.2
20260507030046 43 0 0.0 0.0 0.00 0.02 0.02 77 1018.1
20260507024542 44 0 0.0 0.0 0.00 0.02 0.02 72 1018.1
20260507023040 45 0 0.0 0.0 0.00 0.02 0.02 69 1017.8
20260507021544 46 0 0.0 0.0 0.00 0.02 0.02 67 1017.7
20260507020040 47 0 0.0 0.0 0.00 0.02 0.02 64 1017.6
20260507014551 49 0 0.0 0.0 0.00 0.02 0.02 62 1017.4
20260507013040 51 0 0.0 0.0 0.00 0.02 0.02 58 1017.4
20260507011542 52 0 0.0 0.0 0.00 0.02 0.02 55 1017.2
20260507010037 54 0 0.0 1.0 0.00 0.02 0.02 51 1017.0
20260507004539 55 0 0.0 0.0 0.00 0.03 0.02 51 1017.0
20260507003034 56 0 0.0 3.0 0.00 0.03 0.02 50 1016.9
20260507001548 57 12 1.0 5.0 0.00 0.03 0.02 48 1016.8
20260507000041 57 323 0.0 3.0 0.00 0.03 0.02 49 1016.8
20260506234535 58 319 0.0 6.0 0.00 0.03 0.02 45 1017.0
20260506233043 60 0 0.0 2.0 0.00 0.03 0.02 43 1017.0
20260506231543 60 315 1.0 4.0 0.00 0.03 0.02 45 1016.9
20260506230045 61 300 0.0 4.0 0.00 0.03 0.02 43 1016.7
20260506224542 61 324 2.0 8.0 0.00 0.03 0.02 45 1016.8
20260506223036 62 25 0.0 3.0 0.00 0.03 0.02 45 1017.0
20260506221535 62 0 1.0 4.0 0.00 0.03 0.02 39 1017.0
20260506220040 62 340 1.0 8.0 0.00 0.03 0.02 48 1017.1
20260506214550 63 11 0.0 4.0 0.00 0.03 0.02 42 1017.2
20260506213041 62 18 0.0 4.0 0.00 0.03 0.02 43 1017.4
20260506211542 62 346 1.0 4.0 0.00 0.03 0.02 44 1017.4
20260506210041 62 290 1.0 6.0 0.00 0.03 0.02 48 1017.8
20260506204542 60 27 2.0 6.0 0.00 0.03 0.02 50 1018.0
20260506203035 62 22 0.0 8.0 0.00 0.03 0.02 49 1018.1
20260506201534 60 332 3.0 8.0 0.00 0.03 0.02 53 1018.3
20260506200043 61 0 1.0 4.0 0.00 0.03 0.02 53 1018.5
20260506194536 60 11 1.0 8.0 0.00 0.04 0.02 47 1018.5
20260506193035 59 87 1.0 8.0 0.00 0.04 0.02 49 1018.6
20260506191548 60 307 1.0 5.0 0.00 0.04 0.02 48 1018.7
20260506190040 61 0 1.0 4.0 0.00 0.04 0.02 49 1018.7
20260506184540 60 42 2.0 5.0 0.00 0.04 0.02 49 1018.8
20260506183035 57 18 1.0 7.0 0.00 0.04 0.02 48 1018.9
20260506181549 57 306 0.0 2.0 0.00 0.04 0.02 52 1019.2
20260506180058 56 298 0.0 4.0 0.00 0.04 0.02 49 1019.2
20260506174541 56 37 3.0 5.0 0.00 0.05 0.02 50 1019.3
20260506173045 56 329 1.0 5.0 0.00 0.05 0.02 51 1019.5
20260506171535 56 25 1.0 5.0 0.00 0.05 0.02 55 1019.3
20260506170035 56 34 2.0 6.0 0.00 0.05 0.02 54 1019.4
20260506164534 56 305 1.0 3.0 0.00 0.13 0.02 50 1019.3
20260506163044 57 0 0.0 5.0 0.00 0.13 0.02 55 1019.2
20260506161536 56 314 1.0 5.0 0.00 0.13 0.02 53 1019.0
20260506160037 56 30 2.0 8.0 0.00 0.13 0.02 54 1018.9